FW0906 Weather Reports


time (UTC)temp
C
wind
direction
speed
KPH
gust
KPH
rain 1hr
cm
rain 24hr
cm
rain mn
cm
humidity
%
barometer
mb
20260508213026 20 214 3.2 9.7 0.00 0.00 0.00 42 1008.3
20260508211524 19 209 0.0 4.8 0.00 0.00 0.00 44 1008.3
20260508210018 20 221 0.0 6.4 0.00 0.00 0.00 44 1008.4
20260508204512 20 223 0.0 6.4 0.00 0.00 0.00 44 1008.5
20260508203007 19 300 0.0 12.9 0.00 0.00 0.00 42 1008.6
20260508201502 20 254 0.0 9.7 0.00 0.00 0.00 42 1008.9
20260508194555 20 193 0.0 12.9 0.00 0.00 0.00 40 1009.2
20260508193055 20 195 0.0 6.4 0.00 0.00 0.00 41 1009.5
20260508191547 20 248 3.2 14.5 0.00 0.00 0.00 40 1009.8
20260508190050 20 360 6.4 14.5 0.00 0.00 0.00 40 1009.9
20260508184545 19 215 0.0 4.8 0.00 0.00 0.00 42 1010.1
20260508183034 19 136 0.0 6.4 0.00 0.00 0.00 42 1010.3
20260508181537 20 198 0.0 9.7 0.00 0.00 0.00 41 1010.6
20260508180024 20 205 3.2 11.3 0.00 0.00 0.00 40 1010.8
20260508174529 19 192 1.6 8.0 0.00 0.00 0.00 38 1010.9
20260508173014 19 198 0.0 11.3 0.00 0.00 0.00 37 1011.3
20260508171511 18 213 3.2 11.3 0.00 0.00 0.00 35 1011.4
20260508170006 18 175 0.0 11.3 0.00 0.00 0.00 31 1011.7
20260508164503 18 161 0.0 11.3 0.00 0.00 0.00 22 1011.9
20260508163057 17 360 1.6 11.3 0.00 0.00 0.00 23 1012.2
20260508161553 17 246 0.0 6.4 0.00 0.00 0.00 21 1012.4
20260508160048 17 253 0.0 6.4 0.00 0.00 0.00 13 1012.5
20260508154545 17 249 0.0 8.0 0.00 0.00 0.00 9 1012.6
20260508153042 16 132 0.0 9.7 0.00 0.00 0.00 100 1012.7
20260508151536 16 226 0.0 11.3 0.00 0.00 0.00 100 1012.8
20260508150034 16 223 0.0 8.0 0.00 0.00 0.00 100 1012.8
20260508144527 15 193 0.0 4.8 0.00 0.00 0.00 100 1013.0
20260508143026 14 184 0.0 0.0 0.00 0.00 0.00 100 1013.1
20260508141518 13 160 0.0 0.0 0.00 0.00 0.00 100 1013.2
20260508140024 13 160 0.0 0.0 0.00 0.00 0.00 100 1013.2
20260508134512 12 162 0.0 0.0 0.00 0.00 0.00 100 1013.2
20260508133005 12 128 0.0 0.0 0.00 0.00 0.00 100 1013.1
20260508131601 11 110 0.0 0.0 0.00 0.00 0.00 100 1013.2
20260508130056 10 103 0.0 0.0 0.00 0.00 0.00 100 1013.2
20260508124552 10 93 0.0 0.0 0.00 0.00 0.00 100 1013.2
20260508123103 10 91 3.2 11.3 0.00 0.00 0.00 100 1013.1
20260508121545 9 84 0.0 0.0 0.00 0.00 0.00 100 1013.3
20260508120043 8 82 0.0 4.8 0.00 0.00 0.00 100 1013.1
20260508114541 8 360 0.0 0.0 0.00 0.00 0.00 100 1012.8
20260508113035 8 360 0.0 0.0 0.00 0.00 0.00 100 1013.0
20260508111525 8 360 0.0 0.0 0.00 0.00 0.00 100 1012.9
20260508110021 7 360 0.0 0.0 0.00 0.00 0.00 100 1012.8
20260508104517 7 360 0.0 0.0 0.00 0.00 0.00 100 1012.7
20260508103012 7 360 0.0 0.0 0.00 0.00 0.00 100 1012.9
20260508101508 7 360 0.0 0.0 0.00 0.00 0.00 100 1013.1
20260508100004 7 360 0.0 0.0 0.00 0.00 0.00 100 1012.9
20260508094616 7 360 0.0 0.0 0.00 0.00 0.00 100 1012.9
20260508093056 7 360 0.0 0.0 0.00 0.00 0.00 100 1013.2
20260508091551 7 360 0.0 0.0 0.00 0.00 0.00 100 1013.2
20260508090051 7 360 0.0 0.0 0.00 0.00 0.00 100 1013.1
20260508084542 7 360 0.0 0.0 0.00 0.00 0.00 100 1013.3
20260508083038 7 360 0.0 0.0 0.00 0.00 0.00 100 1013.3
20260508081556 7 360 0.0 0.0 0.00 0.00 0.00 100 1013.4
20260508080034 7 360 0.0 0.0 0.00 0.00 0.00 100 1013.4
20260508074525 8 360 0.0 0.0 0.00 0.00 0.00 100 1013.4
20260508073020 8 360 0.0 0.0 0.00 0.00 0.00 100 1013.6
20260508071534 8 360 0.0 0.0 0.00 0.00 0.00 100 1013.6
20260508070012 9 360 0.0 0.0 0.00 0.00 0.00 100 1013.8
20260508064510 9 360 0.0 0.0 0.00 0.00 0.00 100 1013.8
20260508063007 9 360 0.0 0.0 0.00 0.00 0.00 100 1013.8
20260508061558 9 360 0.0 0.0 0.00 0.00 0.00 100 1013.8
20260508060057 10 360 0.0 0.0 0.00 0.00 0.00 100 1013.7
20260508054551 10 360 0.0 0.0 0.00 0.00 0.00 100 1013.8
20260508053045 10 360 0.0 0.0 0.00 0.00 0.00 100 1013.5
20260508051541 11 360 0.0 0.0 0.00 0.00 0.00 100 1013.4
20260508050037 11 360 0.0 0.0 0.00 0.00 0.00 100 1013.5
20260508044532 12 360 0.0 0.0 0.00 0.00 0.00 100 1013.4
20260508043028 12 360 1.6 9.7 0.00 0.00 0.00 100 1013.3
20260508041523 12 251 0.0 6.4 0.00 0.00 0.00 100 1013.2
20260508040019 12 250 0.0 0.0 0.00 0.00 0.00 10 1013.2
20260508034515 12 248 0.0 8.0 0.00 0.00 0.00 30 1013.0
20260508033010 13 250 0.0 4.8 0.00 0.00 0.00 39 1012.9
20260508031507 13 246 0.0 4.8 0.00 0.00 0.00 42 1012.9
20260508030005 13 256 1.6 8.0 0.00 0.00 0.00 42 1012.8
20260508024558 12 192 0.0 4.8 0.00 0.00 0.00 39 1012.8
20260508023052 12 5 0.0 4.8 0.00 0.00 0.00 42 1012.8
20260508021554 13 236 0.0 0.0 0.00 0.00 0.00 44 1012.4
20260508020044 13 236 0.0 0.0 0.00 0.00 0.00 43 1012.3
20260508014543 13 236 0.0 0.0 0.00 0.00 0.00 43 1012.1
20260508013035 13 243 0.0 0.0 0.00 0.00 0.00 42 1012.0
20260508011534 13 246 0.0 0.0 0.00 0.00 0.00 45 1011.9
20260508010033 13 250 0.0 0.0 0.00 0.00 0.00 46 1011.9
20260508004522 14 257 0.0 0.0 0.00 0.00 0.00 46 1011.8
20260508003017 15 260 0.0 0.0 0.00 0.00 0.00 45 1011.8
20260508001514 15 257 0.0 0.0 0.00 0.00 0.00 44 1011.8
20260508000009 16 360 0.0 14.5 0.00 0.00 0.00 43 1011.7
20260507234507 16 360 0.0 14.5 0.00 0.00 0.00 43 1011.8
20260507233101 16 360 9.7 20.9 0.00 0.00 0.00 42 1012.0
20260507231559 16 360 8.0 20.9 0.00 0.00 0.00 42 1012.1
20260507230053 15 360 1.6 12.9 0.00 0.00 0.00 41 1012.1
20260507224552 15 327 0.0 6.4 0.00 0.00 0.00 38 1012.3
20260507223043 14 355 0.0 0.0 0.00 0.00 0.00 40 1012.5
20260507221541 14 9 0.0 0.0 0.00 0.00 0.00 37 1012.3
20260507220036 13 13 0.0 1.6 0.00 0.00 0.00 40 1012.4
20260507214533 14 347 1.6 43.5 0.00 0.00 0.00 47 1012.5